星链-30189 (STARLINK-30189 )

导读

STARLINK-30189是美国太空探索技术公司星链互联网卫星项目的卫星,于北京时间2023年7月24日发射入轨,归属美国所有,作为星链星座的组成部分,承担低轨卫星互联网服务组网任务,依托星链大规模低轨星座部署,为全球多地用户提供宽带互联网通信覆盖,支撑卫星互联网络服务的扩展与迭代。

Basic Information
目录编号:
57430
目录名称:
STARLINK-30189
国际标识:
2023-105A
轨道中心:
EARTH
卫星名称:
星链-30189
卫星全名:
星链-30189 (STARLINK-30189 )
卫星状态:
已陨落 最后检测时间 2026-04-29
发射日期:
2023-07-24 UTC
国别 :
美国 (US)
星等 :
--
Orbit Information
数据来源 国际轨道数据
星历时间: 2026-04-29T05:01:43+0800
轨道信息已过期50天
半长轴: 6614.11km
偏心率: 0.0006872
轨道倾角: 42.992°
近地点辐角 298.910°
升交点赤经 292.483°
平近点角 61.109°
近地点: 231.427km
远地点: 240.519km
周期: 89.221分钟
每日圈数: 16.13971
Detailed Information
固有亮度:
5
最大亮度:
0.3
卫星平台:
Starlink v2.0 mini
覆盖范围:
全球
运营商:
太空探索技术公司
运营商所在国:
美国
制造商(研发单位):
太空探索技术公司
制造商所在国:
美国
使用方式:
暂无
Satellite Introduction
星链(Starlink)计划是由太空探索技术公司(SpaceX)提出的一个巨型低轨卫星互联网星座项目,计划在2019年至2024年间在太空搭建由约1.2万颗卫星组成的“星链”网络,其中1584颗将部署在地球上空550千米处的近地轨道,并从2020年开始工作。该卫星仍在工作。